NOAA 16 DEB, 42406

Orbit data source: Space-Track

NOAA 16 DEB, 42406 is space debris in SSO originally from a launch on Thu, 21 Sep 2000 UTC launched from the Air Force Western Test Range (AFWTR). Debris objects in space refer to the collection of defunct objects orbiting the Earth. Examples of debris include non-operational satellites, rocket bodies, and fragments generated from explosions, collisions, or faulty payload assembly.

Loading next visibility...
Identifier
42406, 2000-055TA
Orbit
SSO
Country
Flag of USUS
Related business
Manufacturer
Unknown
Mission
Spacecraft
Bus & Motor
Unknown
Mass
Unknown
Launch date (UTC)
2000-09-21 (26 years ago)
Launch vehicle
Unknown
Launch site
Air Force Western Test Range (AFWTR)
Object type
Payload
Rocket body
Debris
Shape & HBR
Unknown shape, 0.1 m
Radar Cross Section
Small (<0.1 m²)

Expand to show TLE details & history
Last TLE update: 2 days ago

TLE from 2 days ago
0 NOAA 16 DEB
1 42406U 00055TA  26235.94624035  .00000671  00000-0  33269-3 0  9997
2 42406  98.5660 289.8414 0018094 118.9603 241.3391 14.20332053538639
Epoch: 2026-08-23T22:42Z
TLE epoch observation values (Epoch: 2026-08-23T22:42:35.166Z)
Latitude
Longitude
-23.04013°
Altitude
833.419 km
Speed
7.433 km/s
True Right ascension
19h 19m 21s
True Declination
0° 00' 00"
Sunlit
Object was in full shadow at epoch
Visualization orbit readout
Latitude
Unknown
Longitude
Unknown
Altitude
Unknown
Speed
Unknown
Apparent Right ascension
Unknown
Apparent Declination
Unknown
Sunlit
N/A
Visualization observer readout
Local Sidereal Time
05:18:56
Azimuth
Unknown
Elevation
Unknown
Doppler factor
Unknown
Orbital elements
Apogee altitude
834.408 km
Perigee altitude
808.355 km
Semi-major axis
7,199.518 km
Eccentricity
0.00181
Inclination
98.566°
RAAN
289.8414°
Arg. of periapsis
118.9603°
True anomaly
241.15736°
Mean anomaly
241.3391°
Eccentric anomaly
241.24821°
Mean motion
3.55294 °/min
Orbital period
101.32 mins
BSTAR
0.00033269
Loading maneuver chart data...
Computing Atmospheric mass density...
Loading historical data...
Loading historical data...
Loading historical data...
Loading historical data...
Loading historical data...
Loading historical data...
Loading historical data...

Documentation

Showing up to 5 results
|